Terminal Aerodrome Forecast
Issued by NWS Northern Indiana

Home | Current Version | Previous Version | Text Only | Print | Product List | Glossary On
Versions: 1 2 3 4 5 6 7 8 9 10 11 12 13 14 15 16 17 18
000
FTUS43 KIWX 290528
TAFFWA
TAF
KFWA 290528Z 2906/3006 04004KT P6SM OVC015
     FM291000 01003KT 4SM BR OVC004
     FM291400 03004KT P6SM OVC010
     FM291800 04005KT P6SM BKN025=

USA.gov is the U.S. government's official web portal to all federal, state and local government web resources and services.